Regional Weather Roundup
Issued by NWS Wakefield, VA

Home | Current Version | Previous Version | Text Only | Print | Product List | Glossary On
Versions: 1 2 3 4 5 6 7 8 9 10 11 12 13 14 15 16 17 18 19 20 21 22 23 24 25 26 27 28 29 30 31 32 33 34 35 36 37 38 39 40 41 42 43 44 45 46 47 48 49 50
000
ASUS41 KAKQ 291815
RWRAKQ

REGIONAL WEATHER ROUNDUP
NATIONAL WEATHER SERVICE WAKEFIELD VA
200 PM EDT SAT APR 29 2017

Note: "fair" indicates few or no clouds below 12,000 feet with no
significant weather and/or obstructions to visibility. * = Denotes
station may not report precipitation (e.g., rain,snow,etc.),
thunder or fog.

VAZ042-051-052>054-056-291900-
NORTHERN VIRGINIA

CITY           SKY/WX    TMP DP  RH WIND       PRES   REMARKS
WASH NATIONAL  CLOUDY    88  67  49 SW16      30.05S
DULLES         PTSUNNY   87  64  46 S16G24    30.05F
FORT BELVOIR   CLOUDY    86  69  55 S9        30.05F
QUANTICO       SUNNY     81  72  74 S7        30.06F
FREDERICKSBRG* SUNNY     89  68  50 S10       30.06F
STAFFORD*      CLOUDY    86  67  51 SW8       30.10F
WARRENTON      SUNNY     89  63  41 S10G16    30.07S
CULPEPER*      CLOUDY    88  67  50 SW9       30.08F
MANASSAS*        N/A     88  67  49 SW12G20   30.06F
LEESBURG*      CLOUDY    90  66  45 SW3G9     30.06F
WINCHESTER     MOSUNNY   82  64  54 SW9       30.08R
FRONT ROYAL*   CLOUDY    86  64  48 SW5       30.07S
LURAY*         PTCLDY    86  63  45 S9        30.09F
$$

VAZ048-049-060>072-079>083-291900-
CENTRAL AND SOUTH CENTRAL VIRGINIA

CITY           SKY/WX    TMP DP  RH WIND       PRES   REMARKS
RICHMOND       PTSUNNY   87  73  62 SW9       30.10F
CHESTERFIELD*  FAIR     N/A N/A N/A SW10      30.12F
PETERSBURG*    SUNNY     86  70  57 SW8       30.12F
HANOVER        SUNNY     88  70  55 SW12      30.11F
TAPPAHANNOCK*  MOSUNNY   88  65  46 SW9       30.09F
QUINTON*       FAIR      86  73  65 SW7       30.10S
CHARLOTTSVILLE CLOUDY    88  68  51 S8G16     30.09F
GORDONSVILLE*  CLOUDY    88  67  49 SW13      30.08F
ORANGE*        CLOUDY    86  68  54 W10       30.08F
LOUISA*          N/A    N/A N/A N/A MISG      30.08F
BUMPASS*       FAIR      86  71  60 S8G16     30.09F
FARMVILLE*     SUNNY     87  72  60 SW10      30.11F
CREWE*         FAIR      86  73  65 SW5       30.12F
FORT PICKETT*  NOT AVBL
CHASE CITY*    FAIR      82  73  76 SW3       30.15F
CLARKSVILLE*   FAIR      82  73  74 SW8       30.15F
SOUTH HILL*    CLOUDY    83  74  73 SW8G16    30.20F
LAWRENCEVILLE* FAIR      85  73  65 SW10      30.14F
EMPORIA*       CLOUDY    82  72  69 S7        30.15F
$$

VAZ088>098-291900-
SOUTHEAST VIRGINIA

CITY           SKY/WX    TMP DP  RH WIND       PRES   REMARKS
NORFOLK        MOSUNNY   88  72  58 W13       30.11F
VIRGINIA BEACH PTSUNNY   86  72  62 SW14      30.11F
NORFOLK NAVAL  CLOUDY    87  72  60 SW15      30.12F
WEST POINT*    SUNNY     86  70  59 SW10      30.10F
SALUDA*        FAIR      86  74  67 SW9       30.08F
NEWPORT NEWS   CLOUDY    87  74  64 SW14G22   30.10F HX  95
LANGLEY AFB    CLOUDY    85  74  68 SW16      30.10F
FORT EUSTIS    SUNNY     87  74  64 SW7       30.08F HX  95
WILLIAMSBURG*  MOSUNNY   90  73  58 SW5       30.11S HX  98
HR EXEC AP*    FAIR      88  73  62 SW13      30.09F HX  96
FRANKLIN*      PTSUNNY   84  72  66 SW12      30.14S
US460-WAKEFLD  CLOUDY    86  73  65 S10G18    30.11F
$$

VAZ020-022-025-037-045-291900-
WEST CENTRAL AND SOUTHWEST VIRGINIA

CITY           SKY/WX    TMP DP  RH WIND       PRES   REMARKS
STAUNTON*      CLOUDY    85  65  50 SW12      30.13F
WAYNESBORO*    CLOUDY    84  66  54 W3        30.13F
HOT SPRINGS VA CLOUDY    77  52  41 S6        30.27F
LYNCHBURG      SUNNY     85  69  58 S13       30.15F
DANVILLE       PTSUNNY   82  72  71 SW8       30.15F
SOUTH BOSTON*  FAIR      83  72  68 S7        30.15F
MARTINSVILLE   CLOUDY    82  69  64 SW5       30.19F
ROANOKE        PTSUNNY   85  68  56 VRB6      30.14F
BLACKSBURG     SUNNY     85  58  39 S5        30.20F
DUBLIN*        SUNNY     86  54  33 S8        30.18F
MARION*        SUNNY     85  61  44 CALM      30.20F
HILLSVILLE*    SUNNY     78  67  69 CALM      30.21F
RICHLANDS*     FAIR      83  59  43 SW7       30.19F
WISE*          CLOUDY    82  55  39 SW9       30.20S
ABINGDON*      CLOUDY    87  61  41 W7        30.16F
$$

MDZ021>025-VAZ099-100-291900-
SOUTHERN MARYLAND AND THE DELMARVA PENINSULA

CITY           SKY/WX    TMP DP  RH WIND       PRES   REMARKS
PATUXENT RIVER PTSUNNY   87  73  62 SW15G23   30.06F
BAY BRIDGE APT MOSUNNY   88  68  51 S13       30.03S
LEONARDTOWN    MOSUNNY   86  70  58 SW9       30.08F
DOVER          CLOUDY    87  83  88 SW15G21   30.00S HX 106
GEORGETOWN     MOSUNNY   89  60  37 W12       30.03F
EASTON         MOSUNNY   86  66  51 SW16      30.08S
CAMBRIDGE      SUNNY     86  68  54 SW10      30.05S
SALISBURY      MOSUNNY   87  70  56 W13G18    30.04F
OCEAN CITY     MOSUNNY   87  71  58 W8        30.05F
WALLOPS ISLAND MOSUNNY   84  73  69 W13G20    30.07F
ACCOMACK*      MOSUNNY   83  73  69 W12G17    30.09F
$$

NCZ012>017-030>032-291900-
NORTH CENTRAL AND EASTERN NORTH CAROLINA

CITY           SKY/WX    TMP DP  RH WIND       PRES   REMARKS
ROANOKE RAPIDS FAIR      84  72  65 SW10G16   30.15F
RALEIGH        PTSUNNY   87  71  58 SW12      30.17F
ELIZABETH CITY LGT RAIN  85  74  69 SW12      30.15F
AHOSKIE*         N/A     84  71  66 S3        30.15F
EDENTON*       CLOUDY    86  72  61 SW9       30.17S
CURRITUCK*     CLOUDY    86  71  59 SW8       30.15S
KILL DEVIL HLS CLOUDY    87  67  51 SW3       30.15F
MANTEO         CLOUDY    85  69  59 W7        30.16F
CAPE HATTERAS  SUNNY     81  72  74 SW13      30.21S HAZE
TARBORO*       NOT AVBL
GOLDSBORO      MOSUNNY   87  72  61 SW10      30.16F
WASHINGTON     SUNNY     86  71  61 SW8       30.17F
GREENVILLE     SUNNY     88  70  55 W9G18     30.18F
NEW BERN       MOSUNNY   87  72  60 W8        30.19F
WILMINGTON     PTSUNNY   84  70  62 S14       30.21S
$$

VAZ048-291900-
ELSEWHERE

CITY           SKY/WX    TMP DP  RH WIND       PRES   REMARKS
HARRISBURG PA  CLOUDY    78  63  59 NW12      30.04R
BALTIMORE      CLOUDY    88  64  44 SW8       30.02F
ANNAPOLIS      CLOUDY    88  66  48 SW8G18    30.02F
ANDREWS AFB    SUNNY     88  64  45 SW15      30.05S
PHILADELPHIA   PTSUNNY   84  62  47 SW15      30.01R
HENDERSON NC   PTSUNNY   80  69  69 S6        30.17F
GREENSBORO     PTSUNNY   82  72  71 SW12      30.17F
ROCKY MOUNT    CLOUDY    86  72  62 SW10      30.17F
$$

VAZ100-291900-
MARINE

STATION/POSITION TIME  TEMP    WIND        PRES    WAVE   SWELL
                       AIR SEA DIR/SP/G            HT/PER HT/PER
                 (UTC) (F)     (DEG/KT/KT) (MB)    (FT/S) (FT/S)
CAPE MAY NJ      1742   74 60  220/ 11/ 13 1016.0F
LEWES DE         1748   85 60  280/ 13/ 16 1016.4F
15NM E FENWICK I 1750   61 56  200/ 12/ 14 1017.6F   4/ 6   2/ 8
OCEAN-CITY-INLET 1748   82 55  270/  8/ 10 1017.8F
WACHAPREAGUE VA  1748   83 74  190/  8/ 14 1018.4F
THOMAS POINT MD  1800   71 62  180/ 11/ 12   N/A
GOOSES REEF MD   1800   72 59  200/  6/  8 1018.3    1
COVE POINT MD    1748   84     250/  9/ 14 1018.3F
SOLOMONS ISLAND  1748   80 61  230/ 13/ 17   N/A
BISHOPS HEAD MD  1748   78 76  220/ 10/ 13 1018.5F
PINEY POINT MD   1736          240/  8/ 10   N/A
POTOMAC MD       1800   77 68  240/  6/  8 1017.3    1
CAMBRIDGE MD     1742   88 67                N/A
LEWISETTA VA     1748   83 71  250/  8/ 10 1018.1F
RAPPAHANNOCK LGT 1736          170/  8/  9 1019.8F
STINGRAY PT      1800   78 65  230/  6/  8 1019.2    1
YORK RVR RNG VA  1748   79     270/ 12/ 13 1018.7F
YORKTOWN VA      1748   83 68  260/ 12/ 18 1018.8F
JAMESTOWN VA     1800   82 72  230/ 10/ 14   N/A     0
DOMINION TERM VA 1748   78     240/ 10/ 11 1019.9F
KIPTOPEKE VA     1736      65  190/  4/  6   N/A
CHES BAY BRIDGE  1736   80 63  260/ 12/ 13 1019.4F
CAPE HENRY VA    1736   85     230/  9/ 15   N/A
WILLOUBY STN VA  1736   78     230/ 13/ 14 1020.7F
S CRANEY ISL VA  1748   84     220/ 11/ 13 1019.6F
CAPE HENRY BUOY  1742      65                N/A     3/ 8
1ST LANDING BUOY 1800   76 65              1019.6    1/ 4
CAPE CHARLES BUO 1751      62                N/A     2/ 8
64NM E OF VA BCH 1750   63 58  210/ 12/ 14 1021.6F   3/ 5   2/ 7
DUCK PIER NC     1736   80 56  260/ 10/ 13 1020.9F
44100 DUCK FRF   1705      62                N/A     3/ 8
44056 DUCK FRF   1730      60                N/A     2/ 8
OREGON INLET NC  1736   76 77  190/ 17/ 20 1021.5F
HATTERAS NC      1736   77 73  210/ 12/ 17 1022.7S
DIAMOND SHLS NC  1750   77 76  220/ 16/ 19 1023.0F   3/ 8   2/ 8
CAPE LOOKOUT NC  1800   77     210/ 15/ 18 1023.0F
$$



USA.gov is the U.S. government's official web portal to all federal, state and local government web resources and services.